Location: Unspecified
(51.0950°N, 12.9690°E)
Time: 15:43:21
(UTC+00:00)

PCSat - Pass Details

Date: 21 April 2024
Orbit: 783 x 792 km, 67.1° (Epoch: 18 May)

Event Time Altitude Azimuth Distance (km) Brightness Sun altitude
Rises 03:10:38 0° 321° (NW) 3,302 12.7 -7.8°
Reaches altitude 10° 03:13:04 10° 319° (NW) 2,369 11.9 -7.5°
Maximum altitude 03:18:28 69° 238° (WSW) 851 9.6 -6.8°
Drops below altitude 10° 03:23:50 10° 156° (SSE) 2,354 12.0 -6.0°
Sets 03:26:14 0° 154° (SSE) 3,279 12.8 -5.7°
